Regional Weather Roundup
Issued by NWS

Home | Current Version | Previous Version | Text Only | Print | Product List | Glossary Off
Versions: 1 2 3 4 5 6 7 8 9 10 11 12 13 14 15 16 17 18 19 20 21 22 23 24 25 26 27 28 29 30 31 32 33 34 35 36 37 38 39 40 41 42 43 44 45 46 47 48 49 50

000
ASUS45 KTFX 030619
RWRMT
MONTANA REGIONAL WEATHER ROUNDUP
NATIONAL WEATHER SERVICE GREAT FALLS MT
1200 AM MDT THU SEP 03 2015

NOTE: "FAIR" INDICATES FEW OR NO CLOUDS BELOW 12000 FEET WITH NO
SIGNIFICANT WEATHER AND/OR OBSTRUCTIONS TO VISIBILITY.

MTZ001>007-043-030700-
WEST OF THE DIVIDE

CITY           SKY/WX    TMP DP  RH WIND       PRES   REMARKS
KALISPELL      CLOUDY    59  35  40 CALM      29.88S
MISSOULA       CLOUDY    58  41  53 NW8       29.92R
BUTTE          PTCLDY    55  38  52 N5        29.91F
MULLAN PASS    CLOUDY    41  36  82 S7        29.94F
DEER LODGE       N/A     55  39  54 N6        29.94R
EUREKA           N/A     55  37  50 S5          N/A
HAMILTON         N/A     59  41  51 N7        29.88F
LIBBY            N/A     55  39  54 S3        29.87F
RONAN            N/A     57  42  57 SE3       29.96F
$$

MTZ008-052>055-030700-
SOUTHWEST MONTANA

CITY           SKY/WX    TMP DP  RH WIND       PRES   REMARKS
BOZEMAN        PTCLDY    60  35  39 W9        29.81S
DILLON           N/A     56  32  40 MISG      29.85R
W YELLOWSTONE  CLEAR     46  28  49 N3        29.98S
THREE FORKS      N/A     65  23  20 NW7       29.84S
TWIN BRIDGES     N/A     64  32  30 N12       29.84S
$$

MTZ009-010-012-014-046-048-049-054-030700-
EAST SLOPES AND CENTRAL MONTANA

CITY           SKY/WX    TMP DP  RH WIND       PRES   REMARKS
CUT BANK       CLOUDY    55  37  50 W5        29.88F
GREAT FALLS    CLOUDY    61  38  42 NE10      29.86F
MALMSTROM AFB  CLOUDY    62  38  40 NE9       29.87R
HELENA         CLOUDY    63  40  42 W9        29.83F
CONRAD           N/A     59  41  51 CALM      29.89S
$$

MTZ011-013-016-021-045-047-050-051-030700-
NORTH CENTRAL MONTANA

CITY           SKY/WX    TMP DP  RH WIND       PRES   REMARKS
HAVRE          CLOUDY    67  37  33 NW6       29.83R
LEWISTOWN      CLEAR     61  36  39 W7        29.89R
N BAR RANCH      N/A     61  37  41 NW10      29.89R
CHINOOK          N/A     64  39  39 W5        29.81R
FORT BENTON      N/A     64  37  36 N6        29.85F
$$

MTZ017>020-022>027-061-062-030700-
NORTHEAST MONTANA

CITY           SKY/WX    TMP DP  RH WIND       PRES   REMARKS
GLASGOW        MOCLDY    72  40  31 NW15      29.67R
JORDAN           N/A     76  40  27 N12       29.68R
SIDNEY         MOCLDY    64  46  52 CALM        N/A
PLENTYWOOD       N/A     70  45  40 N3        29.64S
POPLAR           N/A     73  43  33 NW3       29.62S
SCOBEY           N/A     62  44  51 W3        29.72R
$$

MTZ028>42-056>058-030700-
SOUTHCENTRAL AND SOUTHEAST MONTANA

CITY           SKY/WX    TMP DP  RH WIND       PRES   REMARKS
BAKER          CLEAR     69  49  48 SE10      29.71F
BILLINGS       MOCLDY    73  31  21 NE10      29.77R
LIVINGSTON     CLEAR     69  27  20 SW9       29.80S
MILES CITY     PTCLDY    78  44  29 S12       29.61F
FORSYTH          N/A     77  43  29 W14       29.64R
LAUREL           N/A     71  32  23 N1        29.79R
ROUNDUP          N/A     73  34  24 NW6       29.73R
$$

REGIONAL REPORTS...DAKOTAS

CITY           SKY/WX    TMP DP  RH WIND       PRES   REMARKS
WILLISTON      MOCLDY    78  54  43 S5        29.64S
MINOT            N/A     66  62  87 E6        29.69F
DICKINSON      PTCLDY    68  56  65 SE8       29.70F
BEACH            N/A     68  50  52 SE12      29.70S
CROSBY           N/A     75  59  57 S14       29.64R
TIOGA            N/A     68  63  83 NE3       29.71R
BISMARCK       CLEAR     75  70  84 E8        29.72F
GRAND FORKS      N/A     73  67  81 SE15      29.79F
FARGO            N/A     74  68  81 SE12      29.81S
BUFFALO SD       N/A     72  54  53 S7        29.69S
RAPID CITY     CLEAR     62  52  69 N3        29.80S
$$

REGIONAL REPORTS...WYOMING/IDAHO/WASHINGTON

CITY           SKY/WX    TMP DP  RH WIND       PRES   REMARKS
GILLETTE       CLEAR     77  36  22 S17       29.83S
SHERIDAN       PTCLDY    63  40  42 VRB7      29.77R
BUFFALO WY     PTCLDY    78  31  17 W15       29.87F
CODY           CLEAR     72  36  26 SW8       29.87S
YELLOWSTONE LA   N/A     44  34  67 CALM      30.12S
IDAHO FALLS    CLEAR     65  44  46 CALM      29.83F
SALMON         PTCLDY    52  34  50 CALM      29.76R
BOISE          CLOUDY    67  41  38 W12       29.74S
SPOKANE        PTCLDY    55  44  66 S9        29.85F
$$

REGIONAL REPORTS...ALBERTA

CITY           SKY/WX    TMP DP  RH WIND       PRES   REMARKS
EDMONTON       CLEAR     46  41  81 W8        29.80R
CALGARY        PTCLDY    48  37  66 N10G18    29.87R
LETHBRIDGE     MOCLDY    52  36  54 SW5       29.85S
MEDICINE HAT   MOCLDY    59  45  58 NE3       29.82S
WATERTON GATE    N/A     52  36  54 W9G17       N/A
MILK RIVER       N/A     50  41  71 N1          N/A
ONEFOUR          N/A     59  32  36 NW10        N/A
$$

REGIONAL REPORTS...SASKATCHEWAN

CITY           SKY/WX    TMP DP  RH WIND       PRES   REMARKS
SWIFT CURRENT  PTCLDY    64  41  42 NW14G20   29.77S
REGINA         PTCLDY    64  52  63 NE6       29.70R
SASKATOON      MOCLDY    63  46  55 W12G17    29.70R
CYPRESS HILLS    N/A     55  34  44 N7          N/A
VAL MARIE        N/A     66  36  32 N15         N/A
ASSINIBOIA       N/A     48  46  93 W8          N/A
$$


USA.gov is the U.S. government's official web portal to all federal, state and local government web resources and services.